Showing default

TRANSIT 5B-1, 670

Orbit data source: Space-Track

TRANSIT 5B-1, 670 is a payload satellite owned by USN BuWeps (US) in LEO that was launched on Sat, 28 Sep 1963 UTC via a THOR ABLESTAR launch vehicle from the Air Force Western Test Range (AFWTR). Payload-class satellites include a variety of spacecraft equipped with specific instruments for various scientific and technological missions. These include communications satellites like Starlink; space stations such as the ISS; scientific satellites like the Hubble; Earth observation satellites from companies like Planet Labs, Umbra, and HawkEye 360; GPS; miniature CubeSats for education and research; and military/defense satellites.

Loading next visibility...
Identifier
670, 1963-038B
Orbit
LEO
Last TLE update
12 hours ago
Origin
Manufacturer
APL
Mission
Defense Navigation
Bus & Motor
TRANSIT 5, Unknown motor
Mass
69 kg wet, 69 kg dry
Launch date (UTC)
1963-09-28 (62 years ago)
Launch vehicle
THOR ABLESTAR
Launch site
Air Force Western Test Range (AFWTR)
Object type
Payload
Rocket body
Debris
Shape & HBR
Oct Cyl + 1 Rod, 31 m
Radar Cross Section
0.334 m², Medium (>0.1 m² and < 1m²)

Expand to show TLE details & history

TLE from 12 hours ago
0 TRANSIT 5B-1
1 00670U 63038B   25181.84815196  .00000054  00000-0  77440-4 0  9997
2 00670  89.9768 333.9288 0040196 322.5191  37.3155 13.44624498 26974
Epoch: 2025-06-30T20:21Z
TLE epoch observation values (Epoch: 2025-06-30T20:21:20.329Z)
Latitude
-0.00002°
Longitude
109.44202°
Altitude
1,071.207 km
Speed
7.328 km/s
True Right ascension
22h 15m 42s
True Declination
0° 00' 00"
Sunlit
Object was in full shadow at epoch
Visualization orbit readout
Latitude
-19.74769°
Longitude
109.43254°
Altitude
1,071.319 km
Speed
7.329 km/s
Apparent Right ascension
00h 57m 47s
Apparent Declination
-61° 43' 48"
Sunlit
Object is in full shadow
Visualization observer readout
Local Sidereal Time
20:23:47
Azimuth
150.75° SSE
Elevation
-25.594°
Doppler factor
1
Orbital elements
Apogee altitude
1,119.175 km
Perigee altitude
1,059.144 km
Semi-major axis
7,467.297 km
Eccentricity
0.00402
Inclination
89.9768°
RAAN
333.9288°
Arg. of periapsis
322.5191°
True anomaly
Unknown
Mean anomaly
37.3155°
Eccentric anomaly
Unknown
Mean motion
3.36355 °/min
Orbital period
107.03 mins
BSTAR
0.00007744
Loading maneuver chart data...
Loading SW <> Apogee altitude chart data...

TRANSIT 5B-1 Visibility forecast

Observer location: undefined°, undefined°

Span
Click to sort rows by Start time (UTC) header in descending order
Start Az.
Max El. time (UTC)
Max El. Az.
Max El.
End time (UTC)
End Az.
7 mins2025-07-01 09:00:37.463Z106.521° ESE2025-07-01 09:04:37.463Z67.077° ENE17.044°2025-07-01 09:07:37.463Z37.993° NE
11 mins2025-07-01 10:45:37.463Z186.902° SSW2025-07-01 10:50:37.463Z288.486° WNW43.589°2025-07-01 10:56:37.463Z353.497° N
12 mins2025-07-01 21:57:37.463Z14.5° NNE2025-07-01 22:03:37.463Z98.194° ESE38.602°2025-07-01 22:09:37.463Z163.493° S
9 mins2025-07-01 23:45:37.463Z329.888° NNW2025-07-01 23:49:37.463Z286.978° WNW23.5°2025-07-01 23:54:37.463Z235.946° WSW
|